Flag for Chile Weather past 2 weeks in Santiago, Chile

Now
82 °F

Passing clouds.


Feels Like: 80 °F
Forecast: 53 / 83 °F
Wind: 10 mph from South

Location: Pudahuel

Current Time: Apr 1, 2015 at 3:12:47 PM

Latest Report: Apr 1, 2015 at 3:00 PM


Visibility: N/A

Pressure: 29.98 "Hg

Humidity: 20%

Dew point: 37 °F

Location of SantiagoLocation

Historic Weather in Santiago — Graph

°F

Santiago temperature yesterday

Maximum temperature yesterday: 84 °F (at 5:00 PM)
Minimum temperature yesterday: 52 °F (at 8:00 AM)
Average temperature yesterday: 66 °F

Past Weeks' High & Low Weather Summary

 TemperatureHumidityPressure
High97 °F (Mar 20, 3:00 PM)88% (Mar 22, 9:00 AM)30.15 "Hg (Mar 22, 9:00 AM)
Low52 °F (Mar 27, 8:00 AM)11% (Mar 20, 4:00 PM)29.86 "Hg (Mar 18, 6:00 PM)
Average69 °F53%30.00 "Hg
* Reported Mar 17 2:00 PM — Apr 1 2:00 PM, Santiago, Weather by CustomWeather, © 2015

Note: Actual official high and low records may vary slightly from our data, if they occured in-between our weather recording intervals... More about our weather records

Advertising

Santiago weather history for previous 24 hours

 ConditionsComfort  
Time TempWeatherWind HumidityBarometerVisibility
2:00 PM
Wed, Apr 1
81 °FPassing clouds.6 mph21%30.01 "HgN/A
1:00 PM77 °FSunny.3 mph28%30.01 "Hg10 mi
12:00 PM73 °FSunny.2 mph33%30.04 "Hg10 mi
11:00 AM68 °FSunny.2 mph43%30.04 "Hg10 mi
10:00 AM61 °FSunny.5 mph52%30.04 "Hg6 mi
9:00 AM54 °FSunny.3 mph67%30.01 "Hg4 mi
8:00 AM52 °FSunny.3 mph67%30.01 "Hg3 mi
7:00 AM54 °FSunny.1 mph63%30.01 "Hg10 mi
6:00 AM54 °FClear.No wind67%29.98 "Hg10 mi
4:00 AM59 °FClear.1 mph55%30.01 "Hg6 mi
3:00 AM59 °FClear.1 mph55%30.01 "Hg10 mi
2:00 AM59 °FClear.1 mph55%30.01 "Hg10 mi
1:00 AM63 °FClear.2 mph49%30.01 "Hg10 mi
12:00 AM66 °FClear.3 mph43%30.01 "Hg10 mi
11:00 PM
Tue, Mar 31
70 °FPassing clouds.5 mph38%30.01 "HgN/A
10:00 PM72 °FClear.8 mph38%30.01 "Hg10 mi
9:00 PM75 °FClear.6 mph29%29.98 "Hg10 mi
8:00 PM68 °FClear.8 mph30%N/A10 mi
7:00 PM84 °FPassing clouds.13 mph20%29.95 "HgN/A
6:00 PM84 °FPassing clouds.12 mph22%29.95 "HgN/A
5:00 PM84 °FPassing clouds.10 mph16%29.95 "HgN/A
4:00 PM82 °FPassing clouds.10 mph21%29.98 "HgN/A
3:00 PM81 °FSunny.6 mph23%30.01 "Hg10 mi
Weather by CustomWeather, © 2015

See weather overviewHow to use our weather pages